Location: Bois de la Silve
(44.4667°N, 6.7833°E)
Time: 10:51:56
(UTC+00:00)

CZ-4 R/B - Pass Details

Date: 14 July 2020
Orbit: 682 x 752 km, 98.5° (Epoch: 05 August)

Event Time Altitude Azimuth Distance (km) Brightness Sun altitude
Rises 00:02:01 0° 13° (NNE) 3,084 8.5 -23.7°
Reaches altitude 10° 00:04:15 10° 13° (NNE) 2,171 7.4 -23.6°
Maximum altitude 00:09:01 89° 292° (WNW) 715 3.7 -23.5°
Enters shadow 00:09:36 70° 198° (SSW) 759 3.7 -23.5°
